Time,TemperatureF,DewpointF,PressureIn,WindDirection,WindDirectionDegrees,WindSpeedMPH,WindSpeedGustMPH,Humidity,HourlyPrecipIn,Conditions,Clouds,dailyrainin,SoftwareType,DateUTC
2013-03-08 00:00:00,25.0,-99.9,-100.00,SSW,199,5.0,7.0,-999,-99.99,,,-99.99,,2013-03-08 07:00:00,
2013-03-08 00:52:00,25.0,-99.9,-100.00,SSW,199,5.0,7.0,-999,-99.99,,,-99.99,,2013-03-08 07:52:00,
2013-03-08 01:00:00,23.0,-99.9,-100.00,West,276,6.0,10.0,-999,-99.99,,,-99.99,,2013-03-08 08:00:00,
2013-03-08 01:52:00,23.0,-99.9,-100.00,West,276,6.0,10.0,-999,-99.99,,,-99.99,,2013-03-08 08:52:00,
2013-03-08 02:00:00,21.0,-99.9,-100.00,WSW,247,5.0,5.0,-999,-99.99,,,-99.99,,2013-03-08 09:00:00,
2013-03-08 02:52:00,21.0,-99.9,-100.00,WSW,247,5.0,5.0,-999,-99.99,,,-99.99,,2013-03-08 09:52:00,
2013-03-08 03:00:00,19.0,-99.9,-100.00,WSW,247,7.0,7.0,-999,-99.99,,,-99.99,,2013-03-08 10:00:00,
2013-03-08 03:52:00,19.0,-99.9,-100.00,WSW,247,7.0,7.0,-999,-99.99,,,-99.99,,2013-03-08 10:52:00,
2013-03-08 04:00:00,19.0,-99.9,-100.00,West,260,4.0,5.0,-999,-99.99,,,-99.99,,2013-03-08 11:00:00,
2013-03-08 04:53:00,19.0,-99.9,-100.00,West,260,4.0,5.0,-999,-99.99,,,-99.99,,2013-03-08 11:53:00,
2013-03-08 05:00:00,19.0,-99.9,-100.00,WSW,243,4.0,5.0,-999,-99.99,,,-99.99,,2013-03-08 12:00:00,
2013-03-08 05:53:00,19.0,-99.9,-100.00,WSW,243,4.0,5.0,-999,-99.99,,,-99.99,,2013-03-08 12:53:00,
2013-03-08 06:00:00,25.0,-99.9,-100.00,South,169,4.0,6.0,-999,-99.99,,,-99.99,,2013-03-08 13:00:00,
2013-03-08 06:52:00,25.0,-99.9,-100.00,South,169,4.0,6.0,-999,-99.99,,,-99.99,,2013-03-08 13:52:00,
2013-03-08 07:00:00,25.0,-99.9,-100.00,WSW,244,2.0,6.0,-999,-99.99,,,-99.99,,2013-03-08 14:00:00,
2013-03-08 07:53:00,25.0,-99.9,-100.00,WSW,244,2.0,6.0,-999,-99.99,,,-99.99,,2013-03-08 14:53:00,
2013-03-08 08:00:00,32.0,-99.9,-100.00,ESE,119,2.0,3.0,-999,-99.99,,,-99.99,,2013-03-08 15:00:00,
2013-03-08 08:53:00,32.0,-99.9,-100.00,ESE,119,2.0,3.0,-999,-99.99,,,-99.99,,2013-03-08 15:53:00,
2013-03-08 09:00:00,36.0,-99.9,-100.00,West,269,2.0,2.0,-999,-99.99,,,-99.99,,2013-03-08 16:00:00,
2013-03-08 09:52:00,36.0,-99.9,-100.00,West,269,2.0,2.0,-999,-99.99,,,-99.99,,2013-03-08 16:52:00,
2013-03-08 10:00:00,41.0,-99.9,-100.00,SE,146,3.0,3.0,-999,-99.99,,,-99.99,,2013-03-08 17:00:00,
2013-03-08 10:52:00,41.0,-99.9,-100.00,SE,146,3.0,3.0,-999,-99.99,,,-99.99,,2013-03-08 17:52:00,
2013-03-08 11:30:00,48.0,-99.9,-100.00,NW,304,0.0,1.0,-999,-99.99,,,-99.99,,2013-03-08 18:30:00,
2013-03-08 11:52:00,45.0,-99.9,-100.00,North,-999,-999.0,-999.0,-999,-99.99,,,-99.99,,2013-03-08 18:52:00,
2013-03-08 12:00:00,45.0,-99.9,-100.00,ENE,71,6.0,9.0,-999,-99.99,,,-99.99,,2013-03-08 19:00:00,
2013-03-08 12:02:00,48.0,-99.9,-100.00,NW,304,0.0,1.0,-999,-99.99,,,-99.99,,2013-03-08 19:02:00,
2013-03-08 12:12:00,48.0,-99.9,-100.00,NW,304,0.0,1.0,-999,-99.99,,,-99.99,,2013-03-08 19:12:00,
2013-03-08 12:22:00,48.0,-99.9,-100.00,NW,304,0.0,1.0,-999,-99.99,,,-99.99,,2013-03-08 19:22:00,
2013-03-08 12:52:00,45.0,-99.9,-100.00,ENE,71,6.0,9.0,-999,-99.99,,,-99.99,,2013-03-08 19:52:00,
2013-03-08 13:00:00,43.0,-99.9,-100.00,East,83,5.0,10.0,-999,-99.99,,,-99.99,,2013-03-08 20:00:00,
2013-03-08 13:53:00,43.0,-99.9,-100.00,East,83,5.0,10.0,-999,-99.99,,,-99.99,,2013-03-08 20:53:00,
2013-03-08 14:00:00,43.0,-99.9,-100.00,North,351,0.0,10.0,-999,-99.99,,,-99.99,,2013-03-08 21:00:00,
2013-03-08 14:52:00,43.0,-99.9,-100.00,North,351,0.0,10.0,-999,-99.99,,,-99.99,,2013-03-08 21:52:00,
2013-03-08 15:00:00,41.0,-99.9,-100.00,ENE,77,11.0,14.0,-999,-99.99,,,-99.99,,2013-03-08 22:00:00,
2013-03-08 15:53:00,41.0,-99.9,-100.00,ENE,77,11.0,14.0,-999,-99.99,,,-99.99,,2013-03-08 22:53:00,
2013-03-08 16:00:00,39.0,-99.9,-100.00,East,86,9.0,10.0,-999,-99.99,,,-99.99,,2013-03-08 23:00:00,
2013-03-08 16:53:00,39.0,-99.9,-100.00,East,86,9.0,10.0,-999,-99.99,,,-99.99,,2013-03-08 23:53:00,
2013-03-08 17:00:00,39.0,-99.9,-100.00,East,97,3.0,4.0,-999,-99.99,,,-99.99,,2013-03-09 00:00:00,
2013-03-08 17:52:00,39.0,-99.9,-100.00,East,97,3.0,4.0,-999,-99.99,,,-99.99,,2013-03-09 00:52:00,
2013-03-08 20:00:00,27.0,-99.9,-100.00,ESE,122,5.0,8.0,-999,-99.99,,,-99.99,,2013-03-09 03:00:00,
2013-03-08 20:52:00,27.0,-99.9,-100.00,ESE,122,5.0,8.0,-999,-99.99,,,-99.99,,2013-03-09 03:52:00,
2013-03-08 21:00:00,27.0,-99.9,-100.00,SSE,163,2.0,6.0,-999,-99.99,,,-99.99,,2013-03-09 04:00:00,
2013-03-08 21:52:00,27.0,-99.9,-100.00,SSE,163,2.0,6.0,-999,-99.99,,,-99.99,,2013-03-09 04:52:00,
2013-03-08 22:00:00,27.0,-99.9,-100.00,SSW,209,1.0,2.0,-999,-99.99,,,-99.99,,2013-03-09 05:00:00,
2013-03-08 22:53:00,27.0,-99.9,-100.00,SSW,209,1.0,2.0,-999,-99.99,,,-99.99,,2013-03-09 05:53:00,
2013-03-08 23:00:00,23.0,-99.9,-100.00,WSW,240,5.0,5.0,-999,-99.99,,,-99.99,,2013-03-09 06:00:00,
2013-03-08 23:52:00,23.0,-99.9,-100.00,WSW,240,5.0,5.0,-999,-99.99,,,-99.99,,2013-03-09 06:52:00,